Regional Weather Roundup
Issued by NWS Raleigh/Durham, NC

Home | Current Version | Previous Version | Text Only | Print | Product List | Glossary On
Versions: 1 2 3 4 5 6 7 8 9 10 11 12 13 14 15 16 17 18 19 20 21 22 23 24 25 26 27 28 29 30 31 32 33 34 35 36 37 38 39 40 41 42 43 44 45 46 47 48 49 50
000
ASUS42 KRAH 161510
RWRRAH
NORTH CAROLINA WEATHER ROUNDUP
NATIONAL WEATHER SERVICE RALEIGH NC
1100 AM EDT TUE SEP 16 2014

NOTE: "FAIR" INDICATES FEW OR NO CLOUDS BELOW 12,000 FEET WITH NO
SIGNIFICANT WEATHER AND/OR OBSTRUCTIONS TO VISIBILITY.

NCZ001-053-055-056-065-067-161600-
WESTERN NORTH CAROLINA

CITY           SKY/WX    TMP DP  RH WIND       PRES   REMARKS
ASHEVILLE      PTSUNNY   73  64  73 N9        30.13F
JEFFERSON      CLOUDY    66  60  81 W10G17    30.16F
MORGANTON      SUNNY     76  67  76 SE3       30.11F
HICKORY        SUNNY     73  67  81 CALM      30.07S
RUTHERFORDTON  SUNNY     75  69  81 CALM      30.09S
MOUNT AIRY     MOSUNNY   76  66  72 S3        30.09F
BOONE          MOSUNNY   66  59  77 NW15G25   30.15F
$$

NCZ021-022-025-041-071-084-088-161600-
CENTRAL NORTH CAROLINA

CITY           SKY/WX    TMP DP  RH WIND       PRES   REMARKS
CHARLOTTE      MOSUNNY   77  67  71 CALM      30.07S
GREENSBORO     MOSUNNY   78  62  57 VRB5      30.06F
WINSTON-SALEM  SUNNY     78  61  55 NE7       30.07F
RALEIGH-DURHAM MOSUNNY   78  62  57 VRB6      30.05F
FORT BRAGG     PTSUNNY   77  68  73 CALM      30.05F
FAYETTEVILLE   PTSUNNY   76  69  79 CALM      30.05F
BURLINGTON     SUNNY     78  61  55 NE5       30.06S
LAURINBURG     CLOUDY    76  69  79 CALM      30.06F
$$

NCZ011-015-027-028-043-044-047-080-103-161600-
NORTHEASTERN NORTH CAROLINA

CITY           SKY/WX    TMP DP  RH WIND       PRES   REMARKS
ROCKY MT-WILSO SUNNY     78  66  66 NW7       30.04F
GREENVILLE     PTSUNNY   77  68  73 N6        30.06F
WASHINGTON     PTSUNNY   74  68  83 NW5       30.04F
ELIZABETH CITY PTSUNNY   76  68  76 W10       30.03F
MANTEO         CLOUDY    76  67  73 NW6       30.03S
CAPE HATTERAS  MOSUNNY   77  69  76 W6        30.04S
$$

NCZ078-087-090-091-093-098-101-161600-
SOUTHEASTERN NORTH CAROLINA

CITY           SKY/WX    TMP DP  RH WIND       PRES   REMARKS
LUMBERTON      CLOUDY    75  71  87 CALM      30.05F
GOLDSBORO      CLOUDY    74  73  97 CALM      30.04S
KINSTON        CLOUDY    73  70  88 NW3       30.06S
KENANSVILLE    CLOUDY    74  69  86 NW5       30.06S
NEW BERN       CLOUDY    79  69  71 W5        30.05F
CHERRY POINT   PTSUNNY   78  69  73 W3        30.06S
BEAUFORT       CLOUDY    77  70  79 CALM      30.04F
JACKSONVILLE   CLOUDY    77  71  82 CALM      30.04F
WILMINGTON     CLOUDY    79  72  79 NW8       30.04F
$$




USA.gov is the U.S. government's official web portal to all federal, state and local government web resources and services.